Time,TemperatureF,DewpointF,PressureIn,WindDirection,WindDirectionDegrees,WindSpeedMPH,WindSpeedGustMPH,Humidity,HourlyPrecipIn,Conditions,Clouds,dailyrainin,SoftwareType,DateUTC
2013-01-22 00:02:00,41.3,35.3,30.06,ESE,110,0.0,3.0,79,0.00,,,0.00,Wunderground v.1.15,2013-01-22 08:02:00,
2013-01-22 00:08:00,41.1,35.1,30.05,ESE,110,1.0,3.0,79,0.00,,,0.00,Wunderground v.1.15,2013-01-22 08:08:00,
2013-01-22 00:14:00,40.9,35.2,30.06,ESE,110,1.0,3.0,80,0.00,,,0.00,Wunderground v.1.15,2013-01-22 08:14:00,
2013-01-22 00:19:00,40.7,35.0,30.05,ESE,110,1.0,3.0,80,0.00,,,0.00,Wunderground v.1.15,2013-01-22 08:19:00,
2013-01-22 00:24:00,40.6,34.9,30.05,ESE,110,0.0,2.0,80,0.00,,,0.00,Wunderground v.1.15,2013-01-22 08:24:00,
2013-01-22 00:30:00,40.5,34.8,30.05,ESE,110,1.0,1.0,80,0.00,,,0.00,Wunderground v.1.15,2013-01-22 08:30:00,
2013-01-22 00:36:00,40.3,34.6,30.05,ESE,110,0.0,3.0,80,0.00,,,0.00,Wunderground v.1.15,2013-01-22 08:36:00,
2013-01-22 00:41:00,40.3,34.9,30.05,ESE,110,0.0,0.0,81,0.00,,,0.00,Wunderground v.1.15,2013-01-22 08:41:00,
2013-01-22 00:47:00,40.2,34.8,30.05,ESE,110,0.0,1.0,81,0.00,,,0.00,Wunderground v.1.15,2013-01-22 08:47:00,
2013-01-22 00:53:00,40.0,34.6,30.05,ESE,110,1.0,2.0,81,0.00,,,0.00,Wunderground v.1.15,2013-01-22 08:53:00,
2013-01-22 00:59:00,39.9,34.5,30.05,ESE,110,1.0,2.0,81,0.00,,,0.00,Wunderground v.1.15,2013-01-22 08:59:00,
2013-01-22 01:04:00,39.8,34.4,30.05,ESE,110,0.0,2.0,81,0.00,,,0.00,Wunderground v.1.15,2013-01-22 09:04:00,
2013-01-22 01:09:00,39.6,34.2,30.05,ESE,110,0.0,3.0,81,0.00,,,0.00,Wunderground v.1.15,2013-01-22 09:09:00,
2013-01-22 01:15:00,39.6,34.2,30.04,ESE,110,1.0,3.0,81,0.00,,,0.00,Wunderground v.1.15,2013-01-22 09:15:00,
2013-01-22 01:20:00,39.5,34.2,30.04,ESE,110,1.0,1.0,81,0.00,,,0.00,Wunderground v.1.15,2013-01-22 09:20:00,
2013-01-22 01:26:00,39.5,34.5,30.03,ESE,110,1.0,2.0,82,0.00,,,0.00,Wunderground v.1.15,2013-01-22 09:26:00,
2013-01-22 01:31:00,39.7,34.7,30.03,ESE,110,1.0,2.0,82,0.00,,,0.00,Wunderground v.1.15,2013-01-22 09:31:00,
2013-01-22 01:36:00,39.8,34.8,30.03,ESE,110,2.0,2.0,82,0.00,,,0.00,Wunderground v.1.15,2013-01-22 09:36:00,
2013-01-22 01:42:00,40.0,34.9,30.03,ESE,110,1.0,2.0,82,0.00,,,0.00,Wunderground v.1.15,2013-01-22 09:42:00,
2013-01-22 01:47:00,39.9,34.9,30.03,ESE,110,1.0,3.0,82,0.00,,,0.00,Wunderground v.1.15,2013-01-22 09:47:00,
2013-01-22 01:53:00,40.0,34.9,30.03,ESE,110,2.0,3.0,82,0.00,,,0.00,Wunderground v.1.15,2013-01-22 09:53:00,
2013-01-22 01:58:00,40.0,34.9,30.03,ESE,110,2.0,3.0,82,0.00,,,0.00,Wunderground v.1.15,2013-01-22 09:58:00,
2013-01-22 02:04:00,40.0,34.9,30.03,ESE,110,2.0,2.0,82,0.00,,,0.00,Wunderground v.1.15,2013-01-22 10:04:00,
2013-01-22 02:09:00,39.9,34.9,30.03,ESE,110,2.0,5.0,82,0.00,,,0.00,Wunderground v.1.15,2013-01-22 10:09:00,
2013-01-22 02:15:00,39.9,34.9,30.02,East,98,3.0,6.0,82,0.00,,,0.00,Wunderground v.1.15,2013-01-22 10:15:00,
2013-01-22 02:21:00,39.8,34.8,30.02,ESE,106,3.0,5.0,82,0.00,,,0.00,Wunderground v.1.15,2013-01-22 10:21:00,
2013-01-22 02:27:00,40.0,34.9,30.02,East,95,3.0,7.0,82,0.00,,,0.00,Wunderground v.1.15,2013-01-22 10:27:00,
2013-01-22 02:33:00,40.2,35.1,30.02,East,98,3.0,3.0,82,0.00,,,0.00,Wunderground v.1.15,2013-01-22 10:33:00,
2013-01-22 02:39:00,40.5,35.1,30.02,East,96,2.0,3.0,81,0.00,,,0.00,Wunderground v.1.15,2013-01-22 10:39:00,
2013-01-22 02:44:00,40.7,35.0,30.02,East,90,3.0,5.0,80,0.00,,,0.00,Wunderground v.1.15,2013-01-22 10:44:00,
2013-01-22 02:49:00,40.7,35.0,30.02,East,98,3.0,5.0,80,0.00,,,0.00,Wunderground v.1.15,2013-01-22 10:49:00,
2013-01-22 02:55:00,40.9,35.2,30.02,East,96,2.0,5.0,80,0.00,,,0.00,Wunderground v.1.15,2013-01-22 10:55:00,
2013-01-22 03:01:00,40.9,34.9,30.02,East,94,3.0,6.0,79,0.00,,,0.00,Wunderground v.1.15,2013-01-22 11:01:00,
2013-01-22 03:06:00,40.8,34.8,30.02,East,92,4.0,7.0,79,0.00,,,0.00,Wunderground v.1.15,2013-01-22 11:06:00,
2013-01-22 03:11:00,40.8,34.5,30.01,East,94,5.0,6.0,78,0.00,,,0.00,Wunderground v.1.15,2013-01-22 11:11:00,
2013-01-22 03:17:00,40.9,34.6,30.01,East,93,5.0,6.0,78,0.00,,,0.00,Wunderground v.1.15,2013-01-22 11:17:00,
2013-01-22 03:22:00,40.8,34.1,30.01,East,92,4.0,7.0,77,0.00,,,0.00,Wunderground v.1.15,2013-01-22 11:22:00,
2013-01-22 03:28:00,40.8,34.1,30.00,East,93,4.0,7.0,77,0.00,,,0.00,Wunderground v.1.15,2013-01-22 11:28:00,
2013-01-22 03:34:00,40.9,34.2,30.00,East,93,5.0,9.0,77,0.00,,,0.00,Wunderground v.1.15,2013-01-22 11:34:00,
2013-01-22 03:39:00,41.1,34.1,30.00,ESE,107,4.0,9.0,76,0.00,,,0.00,Wunderground v.1.15,2013-01-22 11:39:00,
2013-01-22 03:44:00,40.9,33.6,30.00,ESE,106,3.0,5.0,75,0.00,,,0.00,Wunderground v.1.15,2013-01-22 11:44:00,
2013-01-22 03:50:00,40.8,33.5,30.00,ESE,106,3.0,3.0,75,0.00,,,0.00,Wunderground v.1.15,2013-01-22 11:50:00,
2013-01-22 03:55:00,40.7,33.4,30.01,ESE,106,2.0,3.0,75,0.00,,,0.00,Wunderground v.1.15,2013-01-22 11:55:00,
2013-01-22 04:00:00,40.6,33.3,30.01,ESE,107,1.0,3.0,75,0.00,,,0.00,Wunderground v.1.15,2013-01-22 12:00:00,
2013-01-22 04:05:00,40.8,33.2,30.00,East,95,2.0,6.0,74,0.00,,,0.00,Wunderground v.1.15,2013-01-22 12:05:00,
2013-01-22 04:11:00,41.1,33.1,30.00,East,94,4.0,4.0,73,0.00,,,0.00,Wunderground v.1.15,2013-01-22 12:11:00,
2013-01-22 04:17:00,40.8,32.8,30.00,East,97,3.0,4.0,73,0.00,,,0.00,Wunderground v.1.15,2013-01-22 12:17:00,
2013-01-22 04:23:00,40.9,32.6,29.99,East,86,2.0,5.0,72,0.00,,,0.00,Wunderground v.1.15,2013-01-22 12:23:00,
2013-01-22 04:28:00,41.1,32.8,29.99,ESE,105,3.0,7.0,72,0.00,,,0.00,Wunderground v.1.15,2013-01-22 12:28:00,
2013-01-22 04:34:00,41.4,32.7,29.99,ESE,111,2.0,3.0,71,0.00,,,0.00,Wunderground v.1.15,2013-01-22 12:34:00,
2013-01-22 04:39:00,41.6,32.5,29.99,ESE,105,1.0,3.0,70,0.00,,,0.00,Wunderground v.1.15,2013-01-22 12:39:00,
2013-01-22 04:45:00,41.9,32.5,29.99,ESE,102,1.0,3.0,69,0.00,,,0.00,Wunderground v.1.15,2013-01-22 12:45:00,
2013-01-22 04:50:00,42.2,32.0,29.99,ESE,103,2.0,3.0,67,0.00,,,0.00,Wunderground v.1.15,2013-01-22 12:50:00,
2013-01-22 04:58:00,41.8,31.6,29.98,East,86,4.0,5.0,67,0.00,,,0.00,Wunderground v.1.15,2013-01-22 12:58:00,
2013-01-22 05:03:00,41.7,31.9,29.98,East,98,4.0,4.0,68,0.00,,,0.00,Wunderground v.1.15,2013-01-22 13:03:00,
2013-01-22 05:09:00,41.6,31.8,29.98,East,94,2.0,4.0,68,0.00,,,0.00,Wunderground v.1.15,2013-01-22 13:09:00,
2013-01-22 05:15:00,41.5,31.7,29.98,East,94,2.0,5.0,68,0.00,,,0.00,Wunderground v.1.15,2013-01-22 13:15:00,
2013-01-22 05:20:00,41.4,31.6,29.97,East,92,3.0,5.0,68,0.00,,,0.00,Wunderground v.1.15,2013-01-22 13:20:00,
2013-01-22 05:26:00,41.4,31.6,29.97,East,93,3.0,6.0,68,0.00,,,0.00,Wunderground v.1.15,2013-01-22 13:26:00,
2013-01-22 05:31:00,41.4,31.6,29.97,East,91,4.0,4.0,68,0.00,,,0.00,Wunderground v.1.15,2013-01-22 13:31:00,
2013-01-22 05:36:00,41.5,31.7,29.97,East,81,4.0,5.0,68,0.00,,,0.00,Wunderground v.1.15,2013-01-22 13:36:00,
2013-01-22 05:42:00,41.6,31.8,29.96,East,86,3.0,6.0,68,0.00,,,0.00,Wunderground v.1.15,2013-01-22 13:42:00,
2013-01-22 05:48:00,41.6,31.4,29.97,East,92,3.0,6.0,67,0.00,,,0.00,Wunderground v.1.15,2013-01-22 13:48:00,
2013-01-22 05:54:00,41.6,31.4,29.97,East,94,3.0,5.0,67,0.00,,,0.00,Wunderground v.1.15,2013-01-22 13:54:00,
2013-01-22 05:59:00,41.6,31.4,29.97,East,94,4.0,6.0,67,0.00,,,0.00,Wunderground v.1.15,2013-01-22 13:59:00,
2013-01-22 06:04:00,41.5,31.4,29.97,East,89,4.0,6.0,67,0.00,,,0.00,Wunderground v.1.15,2013-01-22 14:04:00,
2013-01-22 06:09:00,41.4,31.3,29.97,East,91,4.0,6.0,67,0.00,,,0.00,Wunderground v.1.15,2013-01-22 14:09:00,
2013-01-22 06:14:00,41.3,31.2,29.97,East,90,3.0,6.0,67,0.00,,,0.00,Wunderground v.1.15,2013-01-22 14:14:00,
2013-01-22 06:20:00,41.1,31.3,29.97,East,90,3.0,7.0,68,0.00,,,0.00,Wunderground v.1.15,2013-01-22 14:20:00,
2013-01-22 06:26:00,41.1,31.3,29.97,East,92,2.0,7.0,68,0.00,,,0.00,Wunderground v.1.15,2013-01-22 14:26:00,
2013-01-22 06:31:00,40.9,31.1,29.97,East,92,2.0,5.0,68,0.00,,,0.00,Wunderground v.1.15,2013-01-22 14:31:00,
2013-01-22 06:37:00,40.9,31.1,29.97,East,95,3.0,6.0,68,0.00,,,0.00,Wunderground v.1.15,2013-01-22 14:37:00,
2013-01-22 06:42:00,40.9,31.1,29.97,East,94,4.0,5.0,68,0.00,,,0.00,Wunderground v.1.15,2013-01-22 14:42:00,
2013-01-22 06:48:00,40.7,31.0,29.97,East,94,3.0,5.0,68,0.00,,,0.00,Wunderground v.1.15,2013-01-22 14:48:00,
2013-01-22 06:54:00,40.6,30.9,29.97,East,94,3.0,5.0,68,0.00,,,0.00,Wunderground v.1.15,2013-01-22 14:54:00,
2013-01-22 06:59:00,40.4,31.0,29.97,East,92,4.0,6.0,69,0.00,,,0.00,Wunderground v.1.15,2013-01-22 14:59:00,
2013-01-22 07:04:00,40.3,30.9,29.96,ESE,110,3.0,4.0,69,0.00,,,0.00,Wunderground v.1.15,2013-01-22 15:04:00,
2013-01-22 07:10:00,40.3,30.9,29.96,East,100,2.0,2.0,69,0.00,,,0.00,Wunderground v.1.15,2013-01-22 15:10:00,
2013-01-22 07:15:00,40.3,30.9,29.96,East,94,2.0,3.0,69,0.00,,,0.00,Wunderground v.1.15,2013-01-22 15:15:00,
2013-01-22 07:21:00,40.4,30.7,29.96,East,94,2.0,5.0,68,0.00,,,0.00,Wunderground v.1.15,2013-01-22 15:21:00,
2013-01-22 07:26:00,40.5,30.8,29.96,East,101,2.0,5.0,68,0.00,,,0.00,Wunderground v.1.15,2013-01-22 15:26:00,
2013-01-22 07:32:00,40.5,30.8,29.96,East,97,3.0,6.0,68,0.00,,,0.00,Wunderground v.1.15,2013-01-22 15:32:00,
2013-01-22 07:38:00,40.7,30.6,29.96,East,98,2.0,6.0,67,0.00,,,0.00,Wunderground v.1.15,2013-01-22 15:38:00,
2013-01-22 07:44:00,40.8,30.7,29.95,East,96,2.0,5.0,67,0.00,,,0.00,Wunderground v.1.15,2013-01-22 15:44:00,
2013-01-22 07:50:00,41.1,30.6,29.95,ESE,107,2.0,2.0,66,0.00,,,0.00,Wunderground v.1.15,2013-01-22 15:50:00,
2013-01-22 07:56:00,41.2,30.7,29.96,ESE,105,1.0,2.0,66,0.00,,,0.00,Wunderground v.1.15,2013-01-22 15:56:00,
2013-01-22 08:02:00,41.1,30.6,29.96,East,98,2.0,3.0,66,0.00,,,0.00,Wunderground v.1.15,2013-01-22 16:02:00,
2013-01-22 08:07:00,41.0,30.9,29.95,East,96,3.0,5.0,67,0.00,,,0.00,Wunderground v.1.15,2013-01-22 16:07:00,
2013-01-22 08:13:00,41.0,30.9,29.96,East,94,3.0,3.0,67,0.00,,,0.00,Wunderground v.1.15,2013-01-22 16:13:00,
2013-01-22 08:19:00,41.3,30.8,29.96,East,94,3.0,5.0,66,0.00,,,0.00,Wunderground v.1.15,2013-01-22 16:19:00,
2013-01-22 08:24:00,42.2,30.9,29.96,East,94,3.0,5.0,64,0.00,,,0.00,Wunderground v.1.15,2013-01-22 16:24:00,
2013-01-22 08:29:00,42.6,30.9,29.96,East,95,4.0,5.0,63,0.00,,,0.00,Wunderground v.1.15,2013-01-22 16:29:00,
2013-01-22 08:35:00,42.4,31.1,29.96,East,96,5.0,5.0,64,0.00,,,0.00,Wunderground v.1.15,2013-01-22 16:35:00,
2013-01-22 08:42:00,42.4,31.5,29.96,East,95,4.0,4.0,65,0.00,,,0.00,Wunderground v.1.15,2013-01-22 16:42:00,
2013-01-22 08:47:00,42.6,31.3,29.96,East,96,2.0,4.0,64,0.00,,,0.00,Wunderground v.1.15,2013-01-22 16:47:00,
2013-01-22 08:52:00,43.0,31.3,29.96,East,96,2.0,3.0,63,0.00,,,0.00,Wunderground v.1.15,2013-01-22 16:52:00,
2013-01-22 08:58:00,43.4,31.6,29.97,East,101,2.0,3.0,63,0.00,,,0.00,Wunderground v.1.15,2013-01-22 16:58:00,
2013-01-22 09:03:00,43.6,34.8,29.97,ESE,115,3.0,5.0,71,0.00,,,0.00,Wunderground v.1.15,2013-01-22 17:03:00,
2013-01-22 09:09:00,43.3,34.5,29.97,SE,126,3.0,6.0,71,0.00,,,0.00,Wunderground v.1.15,2013-01-22 17:09:00,
2013-01-22 09:14:00,43.2,35.8,29.97,SE,130,3.0,4.0,75,0.00,,,0.00,Wunderground v.1.15,2013-01-22 17:14:00,
2013-01-22 09:19:00,43.1,35.7,29.97,SE,133,3.0,4.0,75,0.00,,,0.00,Wunderground v.1.15,2013-01-22 17:19:00,
2013-01-22 09:25:00,43.3,36.6,29.97,SE,133,2.0,3.0,77,0.00,,,0.00,Wunderground v.1.15,2013-01-22 17:25:00,
2013-01-22 09:32:00,43.3,36.6,29.97,SE,133,0.0,2.0,77,0.00,,,0.00,Wunderground v.1.15,2013-01-22 17:32:00,
2013-01-22 09:38:00,43.4,36.7,29.97,SE,133,1.0,3.0,77,0.00,,,0.00,Wunderground v.1.15,2013-01-22 17:38:00,
2013-01-22 09:44:00,43.4,35.3,29.97,SE,133,1.0,2.0,73,0.00,,,0.00,Wunderground v.1.15,2013-01-22 17:44:00,
2013-01-22 09:49:00,43.7,35.3,29.97,SE,133,1.0,2.0,72,0.00,,,0.00,Wunderground v.1.15,2013-01-22 17:49:00,
2013-01-22 09:54:00,43.9,35.1,29.97,SE,133,1.0,2.0,71,0.00,,,0.00,Wunderground v.1.15,2013-01-22 17:54:00,
2013-01-22 09:59:00,44.1,34.6,29.97,SE,133,1.0,2.0,69,0.00,,,0.00,Wunderground v.1.15,2013-01-22 17:59:00,
2013-01-22 10:04:00,44.7,34.8,29.97,SE,130,2.0,4.0,68,0.00,,,0.00,Wunderground v.1.15,2013-01-22 18:04:00,
2013-01-22 10:10:00,45.3,34.6,29.97,SE,127,2.0,4.0,66,0.00,,,0.00,Wunderground v.1.15,2013-01-22 18:10:00,
2013-01-22 10:16:00,45.9,35.2,29.98,ESE,119,2.0,4.0,66,0.00,,,0.00,Wunderground v.1.15,2013-01-22 18:16:00,
2013-01-22 10:22:00,46.4,35.3,29.98,ESE,119,2.0,3.0,65,0.00,,,0.00,Wunderground v.1.15,2013-01-22 18:22:00,
2013-01-22 10:27:00,46.9,35.7,29.98,ESE,119,2.0,3.0,65,0.00,,,0.00,Wunderground v.1.15,2013-01-22 18:27:00,
2013-01-22 10:33:00,47.6,36.0,29.98,ESE,119,1.0,2.0,64,0.00,,,0.00,Wunderground v.1.15,2013-01-22 18:33:00,
2013-01-22 10:39:00,48.1,36.9,29.98,ESE,119,1.0,2.0,65,0.00,,,0.00,Wunderground v.1.15,2013-01-22 18:39:00,
2013-01-22 10:44:00,48.6,37.4,29.98,ESE,119,0.0,2.0,65,0.00,,,0.00,Wunderground v.1.15,2013-01-22 18:44:00,
2013-01-22 10:50:00,49.2,37.9,29.98,ESE,119,0.0,2.0,65,0.00,,,0.00,Wunderground v.1.15,2013-01-22 18:50:00,
2013-01-22 10:55:00,49.7,38.0,29.98,ESE,119,0.0,2.0,64,0.00,,,0.00,Wunderground v.1.15,2013-01-22 18:55:00,
2013-01-22 11:01:00,50.4,39.1,29.98,ESE,119,0.0,2.0,65,0.00,,,0.00,Wunderground v.1.15,2013-01-22 19:01:00,
2013-01-22 11:08:00,51.2,39.8,29.98,ESE,119,0.0,2.0,65,0.00,,,0.00,Wunderground v.1.15,2013-01-22 19:08:00,
2013-01-22 11:13:00,51.8,40.0,29.97,ESE,119,0.0,2.0,64,0.00,,,0.00,Wunderground v.1.15,2013-01-22 19:13:00,
2013-01-22 11:18:00,52.2,40.0,29.97,ESE,119,0.0,2.0,63,0.00,,,0.00,Wunderground v.1.15,2013-01-22 19:18:00,
2013-01-22 11:23:00,52.6,39.9,29.97,ESE,119,1.0,2.0,62,0.00,,,0.00,Wunderground v.1.15,2013-01-22 19:23:00,
2013-01-22 11:29:00,53.4,40.3,29.97,ESE,119,1.0,2.0,61,0.00,,,0.00,Wunderground v.1.15,2013-01-22 19:29:00,
2013-01-22 11:35:00,54.5,39.6,29.97,ESE,119,1.0,2.0,57,0.00,,,0.00,Wunderground v.1.15,2013-01-22 19:35:00,
2013-01-22 11:42:00,55.8,39.9,29.96,ESE,119,1.0,2.0,55,0.00,,,0.00,Wunderground v.1.15,2013-01-22 19:42:00,
2013-01-22 11:48:00,56.8,39.8,29.96,ESE,119,1.0,2.0,53,0.00,,,0.00,Wunderground v.1.15,2013-01-22 19:48:00,
2013-01-22 11:53:00,57.6,37.0,29.96,ESE,121,1.0,3.0,46,0.00,,,0.00,Wunderground v.1.15,2013-01-22 19:53:00,
2013-01-22 11:59:00,58.1,35.7,29.95,ESE,122,2.0,3.0,43,0.00,,,0.00,Wunderground v.1.15,2013-01-22 19:59:00,
2013-01-22 12:04:00,58.2,33.3,29.96,SE,134,2.0,4.0,39,0.00,,,0.00,Wunderground v.1.15,2013-01-22 20:04:00,
2013-01-22 12:09:00,58.0,32.5,29.95,South,182,3.0,5.0,38,0.00,,,0.00,Wunderground v.1.15,2013-01-22 20:09:00,
2013-01-22 12:14:00,57.8,32.3,29.95,South,183,4.0,4.0,38,0.00,,,0.00,Wunderground v.1.15,2013-01-22 20:14:00,
2013-01-22 12:20:00,57.5,32.1,29.95,South,189,4.0,6.0,38,0.00,,,0.00,Wunderground v.1.15,2013-01-22 20:20:00,
2013-01-22 12:25:00,57.3,33.8,29.95,South,189,4.0,6.0,41,0.00,,,0.00,Wunderground v.1.15,2013-01-22 20:25:00,
2013-01-22 12:30:00,57.5,35.7,29.95,South,189,4.0,6.0,44,0.00,,,0.00,Wunderground v.1.15,2013-01-22 20:30:00,
2013-01-22 12:35:00,57.2,36.6,29.95,South,190,4.0,6.0,46,0.00,,,0.00,Wunderground v.1.15,2013-01-22 20:35:00,
2013-01-22 12:41:00,56.4,36.4,29.95,South,190,4.0,4.0,47,0.00,,,0.00,Wunderground v.1.15,2013-01-22 20:41:00,
2013-01-22 12:46:00,56.2,35.1,29.94,South,179,5.0,11.0,45,0.00,,,0.00,Wunderground v.1.15,2013-01-22 20:46:00,
2013-01-22 12:52:00,56.2,37.3,29.94,SSW,198,6.0,8.0,49,0.00,,,0.00,Wunderground v.1.15,2013-01-22 20:52:00,
2013-01-22 12:58:00,56.4,35.3,29.94,South,188,8.0,15.0,45,0.00,,,0.00,Wunderground v.1.15,2013-01-22 20:58:00,
2013-01-22 13:03:00,57.2,34.9,29.94,SSW,202,10.0,20.0,43,0.00,,,0.00,Wunderground v.1.15,2013-01-22 21:03:00,
2013-01-22 13:09:00,57.2,35.5,29.94,SSW,194,10.0,20.0,44,0.00,,,0.00,Wunderground v.1.15,2013-01-22 21:09:00,
2013-01-22 13:15:00,56.9,36.3,29.93,South,179,8.0,10.0,46,0.00,,,0.00,Wunderground v.1.15,2013-01-22 21:15:00,
2013-01-22 13:20:00,56.8,35.1,29.93,South,181,8.0,13.0,44,0.00,,,0.00,Wunderground v.1.15,2013-01-22 21:20:00,
2013-01-22 13:26:00,57.0,35.3,29.93,SSW,194,9.0,13.0,44,0.00,,,0.00,Wunderground v.1.15,2013-01-22 21:26:00,
2013-01-22 13:31:00,57.0,37.0,29.93,South,188,9.0,9.0,47,0.00,,,0.00,Wunderground v.1.15,2013-01-22 21:31:00,
2013-01-22 13:37:00,56.1,39.7,29.93,SSW,206,8.0,9.0,54,0.00,,,0.00,Wunderground v.1.15,2013-01-22 21:37:00,
2013-01-22 13:43:00,55.2,41.5,29.93,SSW,199,7.0,7.0,60,0.00,,,0.00,Wunderground v.1.15,2013-01-22 21:43:00,
2013-01-22 13:48:00,54.7,41.5,29.93,South,180,7.0,12.0,61,0.00,,,0.00,Wunderground v.1.15,2013-01-22 21:48:00,
2013-01-22 13:53:00,54.1,41.4,29.92,SSW,202,8.0,11.0,62,0.00,,,0.00,Wunderground v.1.15,2013-01-22 21:53:00,
2013-01-22 13:59:00,54.1,41.8,29.92,SSW,211,9.0,11.0,63,0.00,,,0.00,Wunderground v.1.15,2013-01-22 21:59:00,
2013-01-22 14:04:00,54.4,42.1,29.92,South,189,8.0,9.0,63,0.00,,,0.00,Wunderground v.1.15,2013-01-22 22:04:00,
2013-01-22 14:10:00,55.3,41.2,29.92,South,178,7.0,7.0,59,0.00,,,0.00,Wunderground v.1.15,2013-01-22 22:10:00,
2013-01-22 14:15:00,55.3,41.2,29.92,SSE,155,8.0,10.0,59,0.00,,,0.00,Wunderground v.1.15,2013-01-22 22:15:00,
2013-01-22 14:22:00,55.2,42.0,29.92,SSW,210,8.0,9.0,61,0.00,,,0.00,Wunderground v.1.15,2013-01-22 22:22:00,
2013-01-22 14:27:00,54.9,42.1,29.91,SSW,200,8.0,10.0,62,0.00,,,0.00,Wunderground v.1.15,2013-01-22 22:27:00,
2013-01-22 14:32:00,54.1,42.6,29.92,SSW,196,8.0,11.0,65,0.00,,,0.00,Wunderground v.1.15,2013-01-22 22:32:00,
2013-01-22 14:38:00,53.5,42.4,29.91,SW,223,9.0,13.0,66,0.00,,,0.00,Wunderground v.1.15,2013-01-22 22:38:00,
2013-01-22 14:44:00,54.0,42.9,29.91,SW,222,10.0,13.0,66,0.00,,,0.00,Wunderground v.1.15,2013-01-22 22:44:00,
2013-01-22 14:49:00,54.1,43.0,29.91,SSW,199,9.0,13.0,66,0.00,,,0.00,Wunderground v.1.15,2013-01-22 22:49:00,
2013-01-22 14:55:00,53.9,42.4,29.91,South,180,9.0,12.0,65,0.00,,,0.00,Wunderground v.1.15,2013-01-22 22:55:00,
2013-01-22 15:00:00,53.8,42.3,29.91,SSW,193,9.0,9.0,65,0.00,,,0.00,Wunderground v.1.15,2013-01-22 23:00:00,
2013-01-22 15:06:00,53.5,42.0,29.91,SSW,193,10.0,14.0,65,0.00,,,0.00,Wunderground v.1.15,2013-01-22 23:06:00,
2013-01-22 15:11:00,53.8,41.5,29.91,SSW,194,11.0,14.0,63,0.00,,,0.00,Wunderground v.1.15,2013-01-22 23:11:00,
2013-01-22 15:17:00,53.9,41.6,29.91,South,190,11.0,16.0,63,0.00,,,0.00,Wunderground v.1.15,2013-01-22 23:17:00,
2013-01-22 15:22:00,54.2,41.5,29.91,SSW,196,10.0,11.0,62,0.00,,,0.00,Wunderground v.1.15,2013-01-22 23:22:00,
2013-01-22 15:27:00,54.4,40.4,29.91,SSW,206,9.0,11.0,59,0.00,,,0.00,Wunderground v.1.15,2013-01-22 23:27:00,
2013-01-22 15:32:00,54.9,40.4,29.90,South,189,9.0,9.0,58,0.00,,,0.00,Wunderground v.1.15,2013-01-22 23:32:00,
2013-01-22 15:38:00,55.3,40.3,29.90,South,173,8.0,9.0,57,0.00,,,0.00,Wunderground v.1.15,2013-01-22 23:38:00,
2013-01-22 15:44:00,55.8,39.9,29.90,South,185,8.0,10.0,55,0.00,,,0.00,Wunderground v.1.15,2013-01-22 23:44:00,
2013-01-22 15:49:00,56.3,39.9,29.90,SSE,168,8.0,12.0,54,0.00,,,0.00,Wunderground v.1.15,2013-01-22 23:49:00,
2013-01-22 15:54:00,56.0,40.1,29.89,South,190,7.0,8.0,55,0.00,,,0.00,Wunderground v.1.15,2013-01-22 23:54:00,
2013-01-22 15:59:00,55.5,39.6,29.89,South,190,6.0,8.0,55,0.00,,,0.00,Wunderground v.1.15,2013-01-22 23:59:00,
2013-01-22 16:05:00,54.5,40.5,29.90,SSW,194,5.0,7.0,59,0.00,,,0.00,Wunderground v.1.15,2013-01-23 00:05:00,
2013-01-22 16:11:00,53.6,41.3,29.90,SSW,194,5.0,7.0,63,0.00,,,0.00,Wunderground v.1.15,2013-01-23 00:11:00,
2013-01-22 16:16:00,53.1,42.0,29.90,SSW,195,5.0,9.0,66,0.00,,,0.00,Wunderground v.1.15,2013-01-23 00:16:00,
2013-01-22 16:21:00,52.9,41.4,29.90,SSW,195,6.0,7.0,65,0.00,,,0.00,Wunderground v.1.15,2013-01-23 00:21:00,
2013-01-22 16:27:00,52.6,41.9,29.90,SSW,201,6.0,7.0,67,0.00,,,0.00,Wunderground v.1.15,2013-01-23 00:27:00,
2013-01-22 16:32:00,52.1,42.2,29.90,SSW,209,6.0,9.0,69,0.00,,,0.00,Wunderground v.1.15,2013-01-23 00:32:00,
2013-01-22 16:38:00,51.7,42.6,29.89,SSW,204,6.0,9.0,71,0.00,,,0.00,Wunderground v.1.15,2013-01-23 00:38:00,
2013-01-22 16:43:00,51.5,42.4,29.90,WSW,241,6.0,9.0,71,0.00,,,0.00,Wunderground v.1.15,2013-01-23 00:43:00,
2013-01-22 16:48:00,51.2,42.8,29.90,SSW,197,6.0,9.0,73,0.00,,,0.00,Wunderground v.1.15,2013-01-23 00:48:00,
2013-01-22 16:53:00,51.0,42.6,29.89,SW,229,6.0,11.0,73,0.00,,,0.00,Wunderground v.1.15,2013-01-23 00:53:00,
2013-01-22 16:59:00,50.9,42.6,29.89,SW,234,7.0,11.0,73,0.00,,,0.00,Wunderground v.1.15,2013-01-23 00:59:00,
2013-01-22 17:05:00,50.6,42.6,29.89,SSW,208,8.0,12.0,74,0.00,,,0.00,Wunderground v.1.15,2013-01-23 01:05:00,
2013-01-22 17:11:00,50.4,42.8,29.89,SSW,207,7.0,8.0,75,0.00,,,0.00,Wunderground v.1.15,2013-01-23 01:11:00,
2013-01-22 17:16:00,50.1,43.2,29.89,SW,229,6.0,11.0,77,0.00,,,0.00,Wunderground v.1.15,2013-01-23 01:16:00,
2013-01-22 17:22:00,49.9,43.0,29.89,SSW,202,6.0,8.0,77,0.00,,,0.00,Wunderground v.1.15,2013-01-23 01:22:00,
2013-01-22 17:28:00,49.7,42.8,29.89,SSW,208,6.0,8.0,77,0.00,,,0.00,Wunderground v.1.15,2013-01-23 01:28:00,
2013-01-22 17:34:00,49.8,42.9,29.89,SSW,211,6.0,9.0,77,0.00,,,0.00,Wunderground v.1.15,2013-01-23 01:34:00,
2013-01-22 17:39:00,49.7,42.8,29.89,SSW,209,6.0,9.0,77,0.00,,,0.00,Wunderground v.1.15,2013-01-23 01:39:00,
2013-01-22 17:44:00,49.7,43.1,29.89,SSW,198,5.0,8.0,78,0.00,,,0.00,Wunderground v.1.15,2013-01-23 01:44:00,
2013-01-22 17:49:00,49.6,43.4,29.89,SSW,210,5.0,8.0,79,0.00,,,0.00,Wunderground v.1.15,2013-01-23 01:49:00,
2013-01-22 17:54:00,49.5,43.3,29.89,SSW,200,6.0,6.0,79,0.00,,,0.00,Wunderground v.1.15,2013-01-23 01:54:00,
2013-01-22 18:00:00,49.5,43.3,29.89,SSW,205,5.0,7.0,79,0.00,,,0.00,Wunderground v.1.15,2013-01-23 02:00:00,
2013-01-22 18:06:00,49.5,43.3,29.89,SSW,205,5.0,7.0,79,0.00,,,0.00,Wunderground v.1.15,2013-01-23 02:06:00,
2013-01-22 18:12:00,49.5,43.6,29.89,SSW,206,6.0,7.0,80,0.00,,,0.00,Wunderground v.1.15,2013-01-23 02:12:00,
2013-01-22 18:18:00,49.5,43.6,29.89,South,183,6.0,7.0,80,0.00,,,0.00,Wunderground v.1.15,2013-01-23 02:18:00,
2013-01-22 18:24:00,49.4,43.8,29.89,SSW,200,5.0,6.0,81,0.00,,,0.00,Wunderground v.1.15,2013-01-23 02:24:00,
2013-01-22 18:30:00,49.2,43.9,29.89,SSW,198,5.0,5.0,82,0.00,,,0.00,Wunderground v.1.15,2013-01-23 02:30:00,
2013-01-22 18:36:00,49.0,43.7,29.89,SSW,197,5.0,7.0,82,0.00,,,0.00,Wunderground v.1.15,2013-01-23 02:36:00,
2013-01-22 18:42:00,49.0,43.7,29.89,South,182,4.0,5.0,82,0.00,,,0.00,Wunderground v.1.15,2013-01-23 02:42:00,
2013-01-22 18:47:00,48.9,44.0,29.89,South,182,4.0,6.0,83,0.00,,,0.00,Wunderground v.1.15,2013-01-23 02:47:00,
2013-01-22 18:53:00,48.8,44.2,29.89,South,185,4.0,5.0,84,0.00,,,0.00,Wunderground v.1.15,2013-01-23 02:53:00,
2013-01-22 18:58:00,48.8,44.2,29.89,SSW,197,4.0,7.0,84,0.00,,,0.00,Wunderground v.1.15,2013-01-23 02:58:00,
2013-01-22 19:04:00,48.8,44.2,29.89,SSW,198,4.0,5.0,84,0.00,,,0.00,Wunderground v.1.15,2013-01-23 03:04:00,
2013-01-22 19:09:00,48.9,44.3,29.88,SSW,197,4.0,5.0,84,0.00,,,0.00,Wunderground v.1.15,2013-01-23 03:09:00,
2013-01-22 19:14:00,48.9,44.3,29.88,SSW,197,3.0,4.0,84,0.00,,,0.00,Wunderground v.1.15,2013-01-23 03:14:00,
2013-01-22 19:20:00,48.8,44.2,29.88,SSW,197,3.0,3.0,84,0.00,,,0.00,Wunderground v.1.15,2013-01-23 03:20:00,
2013-01-22 19:27:00,48.8,44.5,29.89,SSW,197,3.0,4.0,85,0.00,,,0.00,Wunderground v.1.15,2013-01-23 03:27:00,
2013-01-22 19:33:00,48.7,44.4,29.89,SSW,197,3.0,4.0,85,0.00,,,0.00,Wunderground v.1.15,2013-01-23 03:33:00,
2013-01-22 19:39:00,48.7,44.4,29.89,SSW,197,3.0,4.0,85,0.00,,,0.00,Wunderground v.1.15,2013-01-23 03:39:00,
2013-01-22 19:44:00,48.7,44.7,29.89,SW,223,4.0,7.0,86,0.00,,,0.00,Wunderground v.1.15,2013-01-23 03:44:00,
2013-01-22 19:49:00,48.8,44.8,29.89,SW,220,5.0,7.0,86,0.00,,,0.00,Wunderground v.1.15,2013-01-23 03:49:00,
2013-01-22 19:55:00,48.8,44.8,29.89,SW,221,5.0,8.0,86,0.00,,,0.00,Wunderground v.1.15,2013-01-23 03:55:00,
2013-01-22 20:01:00,48.8,44.8,29.89,SW,220,5.0,5.0,86,0.00,,,0.00,Wunderground v.1.15,2013-01-23 04:01:00,
2013-01-22 20:07:00,48.8,44.8,29.89,SW,220,4.0,5.0,86,0.00,,,0.00,Wunderground v.1.15,2013-01-23 04:07:00,
2013-01-22 20:12:00,48.8,45.1,29.89,SW,220,4.0,4.0,87,0.00,,,0.00,Wunderground v.1.15,2013-01-23 04:12:00,
2013-01-22 20:17:00,48.9,45.2,29.89,SW,220,4.0,4.0,87,0.00,,,0.00,Wunderground v.1.15,2013-01-23 04:17:00,
2013-01-22 20:23:00,48.9,45.2,29.89,SW,220,3.0,3.0,87,0.00,,,0.00,Wunderground v.1.15,2013-01-23 04:23:00,
2013-01-22 20:29:00,48.9,45.2,29.89,SW,220,2.0,3.0,87,0.00,,,0.00,Wunderground v.1.15,2013-01-23 04:29:00,
2013-01-22 20:34:00,48.8,45.1,29.89,SW,220,2.0,3.0,87,0.00,,,0.00,Wunderground v.1.15,2013-01-23 04:34:00,
2013-01-22 20:39:00,48.8,45.1,29.89,SW,220,1.0,3.0,87,0.00,,,0.00,Wunderground v.1.15,2013-01-23 04:39:00,
2013-01-22 20:44:00,48.6,44.9,29.89,SW,220,1.0,2.0,87,0.00,,,0.00,Wunderground v.1.15,2013-01-23 04:44:00,
2013-01-22 20:50:00,48.5,44.5,29.89,SW,220,0.0,2.0,86,0.00,,,0.00,Wunderground v.1.15,2013-01-23 04:50:00,
2013-01-22 20:56:00,48.4,44.4,29.89,SW,220,0.0,2.0,86,0.00,,,0.00,Wunderground v.1.15,2013-01-23 04:56:00,
2013-01-22 21:01:00,48.3,44.3,29.89,SW,220,0.0,2.0,86,0.00,,,0.00,Wunderground v.1.15,2013-01-23 05:01:00,
2013-01-22 21:04:00,48.2,44.5,29.89,SW,220,0.0,2.0,87,0.00,,,0.00,Wunderground v.1.15,2013-01-23 05:04:00,
2013-01-22 21:06:00,48.1,44.4,29.89,SW,220,0.0,2.0,87,0.00,,,0.00,Wunderground v.1.15,2013-01-23 05:06:00,
2013-01-22 21:07:00,48.1,44.4,29.89,SW,220,0.0,2.0,87,0.00,,,0.00,Wunderground v.1.15,2013-01-23 05:07:00,
2013-01-22 21:12:00,47.9,44.2,29.89,SW,220,0.0,2.0,87,0.00,,,0.00,Wunderground v.1.15,2013-01-23 05:12:00,
2013-01-22 21:17:00,47.8,44.1,29.89,SW,220,0.0,2.0,87,0.00,,,0.00,Wunderground v.1.15,2013-01-23 05:17:00,
2013-01-22 21:23:00,47.6,43.9,29.89,SE,130,0.0,3.0,87,0.00,,,0.00,Wunderground v.1.15,2013-01-23 05:23:00,
2013-01-22 21:29:00,47.5,43.8,29.89,ESE,121,1.0,3.0,87,0.00,,,0.00,Wunderground v.1.15,2013-01-23 05:29:00,
2013-01-22 21:35:00,47.4,43.4,29.89,ESE,121,0.0,2.0,86,0.00,,,0.00,Wunderground v.1.15,2013-01-23 05:35:00,
2013-01-22 21:41:00,47.3,43.3,29.89,ESE,121,0.0,2.0,86,0.00,,,0.00,Wunderground v.1.15,2013-01-23 05:41:00,
2013-01-22 21:47:00,47.3,43.0,29.89,ESE,121,0.0,2.0,85,0.00,,,0.00,Wunderground v.1.15,2013-01-23 05:47:00,
2013-01-22 21:53:00,47.2,42.9,29.89,ESE,121,0.0,2.0,85,0.00,,,0.00,Wunderground v.1.15,2013-01-23 05:53:00,
2013-01-22 21:59:00,47.2,42.9,29.89,ESE,121,0.0,2.0,85,0.00,,,0.00,Wunderground v.1.15,2013-01-23 05:59:00,
2013-01-22 22:04:00,47.2,42.6,29.89,ESE,121,0.0,2.0,84,0.00,,,0.00,Wunderground v.1.15,2013-01-23 06:04:00,
2013-01-22 22:10:00,47.2,42.3,29.89,ESE,121,1.0,2.0,83,0.00,,,0.00,Wunderground v.1.15,2013-01-23 06:10:00,
2013-01-22 22:15:00,47.2,42.0,29.89,ESE,121,1.0,2.0,82,0.00,,,0.00,Wunderground v.1.15,2013-01-23 06:15:00,
2013-01-22 22:20:00,47.3,42.1,29.89,ESE,121,1.0,2.0,82,0.00,,,0.00,Wunderground v.1.15,2013-01-23 06:20:00,
2013-01-22 22:26:00,47.3,41.8,29.89,SE,126,1.0,4.0,81,0.00,,,0.00,Wunderground v.1.15,2013-01-23 06:26:00,
2013-01-22 22:31:00,47.3,41.4,29.90,SE,128,2.0,3.0,80,0.00,,,0.00,Wunderground v.1.15,2013-01-23 06:31:00,
2013-01-22 22:36:00,47.5,41.3,29.89,SE,128,2.0,3.0,79,0.00,,,0.00,Wunderground v.1.15,2013-01-23 06:36:00,
2013-01-22 22:41:00,47.8,41.3,29.89,South,184,3.0,6.0,78,0.00,,,0.00,Wunderground v.1.15,2013-01-23 06:41:00,
2013-01-22 22:47:00,48.5,41.6,29.89,South,174,4.0,6.0,77,0.00,,,0.00,Wunderground v.1.15,2013-01-23 06:47:00,
2013-01-22 22:52:00,48.6,41.7,29.90,South,178,4.0,6.0,77,0.00,,,0.00,Wunderground v.1.15,2013-01-23 06:52:00,
2013-01-22 22:57:00,48.7,41.8,29.90,SSE,166,4.0,6.0,77,0.00,,,0.00,Wunderground v.1.15,2013-01-23 06:57:00,
2013-01-22 23:03:00,48.7,41.5,29.90,SSE,163,3.0,5.0,76,0.00,,,0.00,Wunderground v.1.15,2013-01-23 07:03:00,
2013-01-22 23:08:00,48.4,41.2,29.89,SE,144,3.0,5.0,76,0.00,,,0.00,Wunderground v.1.15,2013-01-23 07:08:00,
2013-01-22 23:13:00,48.3,41.1,29.90,SSE,166,3.0,5.0,76,0.00,,,0.00,Wunderground v.1.15,2013-01-23 07:13:00,
2013-01-22 23:18:00,48.3,40.7,29.90,SSE,164,3.0,6.0,75,0.00,,,0.00,Wunderground v.1.15,2013-01-23 07:18:00,
2013-01-22 23:23:00,48.4,40.8,29.90,SSE,163,3.0,4.0,75,0.00,,,0.00,Wunderground v.1.15,2013-01-23 07:23:00,
2013-01-22 23:28:00,48.6,40.3,29.90,South,173,3.0,5.0,73,0.00,,,0.00,Wunderground v.1.15,2013-01-23 07:28:00,
2013-01-22 23:34:00,48.9,40.6,29.90,South,185,4.0,7.0,73,0.00,,,0.00,Wunderground v.1.15,2013-01-23 07:34:00,
2013-01-22 23:39:00,49.0,40.7,29.89,South,176,4.0,7.0,73,0.00,,,0.00,Wunderground v.1.15,2013-01-23 07:39:00,
2013-01-22 23:45:00,49.1,40.8,29.89,South,176,4.0,6.0,73,0.00,,,0.00,Wunderground v.1.15,2013-01-23 07:45:00,
2013-01-22 23:51:00,49.0,41.1,29.89,South,176,3.0,3.0,74,0.00,,,0.00,Wunderground v.1.15,2013-01-23 07:51:00,
2013-01-22 23:56:00,49.0,41.4,29.89,South,176,3.0,3.0,75,0.00,,,0.00,Wunderground v.1.15,2013-01-23 07:56:00,